TimeEDT,TemperatureF,Dew PointF,Humidity,Sea Level PressureIn,VisibilityMPH,Wind Direction,Wind SpeedMPH,Gust SpeedMPH,PrecipitationIn,Events,Conditions,WindDirDegrees,DateUTC
12:53 AM,78.1,77.0,96,30.05,9.0,NE,5.8,-,N/A,,Clear,50,2013-09-05 04:53:00
1:53 AM,78.1,77.0,96,30.02,9.0,ENE,5.8,-,N/A,,Clear,60,2013-09-05 05:53:00
2:53 AM,78.1,77.0,96,30.01,9.0,ENE,3.5,-,N/A,,Clear,70,2013-09-05 06:53:00
3:53 AM,77.0,77.0,100,30.00,8.0,ENE,5.8,-,N/A,,Clear,70,2013-09-05 07:53:00
4:53 AM,77.0,77.0,100,30.00,8.0,ENE,5.8,-,N/A,,Clear,70,2013-09-05 08:53:00
5:53 AM,77.0,75.9,96,30.01,8.0,NE,4.6,-,N/A,,Clear,50,2013-09-05 09:53:00
6:53 AM,77.0,75.9,96,30.03,8.0,NE,5.8,-,N/A,,Clear,50,2013-09-05 10:53:00
7:53 AM,78.1,77.0,96,30.04,7.0,ENE,5.8,-,N/A,,Clear,60,2013-09-05 11:53:00
8:53 AM,79.0,77.0,94,30.04,9.0,NE,5.8,-,N/A,,Clear,50,2013-09-05 12:53:00
9:53 AM,84.0,79.0,85,30.06,9.0,ENE,6.9,-,N/A,,Scattered Clouds,70,2013-09-05 13:53:00
10:41 AM,86.0,75.2,70,30.07,10.0,East,6.9,-,N/A,,Mostly Cloudy,100,2013-09-05 14:41:00
10:53 AM,84.9,77.0,77,30.07,10.0,ENE,5.8,-,N/A,,Scattered Clouds,70,2013-09-05 14:53:00
11:53 AM,89.1,75.9,65,30.07,10.0,East,10.4,-,N/A,,Scattered Clouds,80,2013-09-05 15:53:00
12:53 PM,91.0,75.0,59,30.05,10.0,ENE,6.9,-,N/A,,Clear,70,2013-09-05 16:53:00
1:53 PM,89.1,77.0,67,30.04,10.0,SW,8.1,-,N/A,,Overcast,220,2013-09-05 17:53:00
2:53 PM,88.0,75.0,65,30.02,10.0,WSW,6.9,-,N/A,,Mostly Cloudy,240,2013-09-05 18:53:00
3:41 PM,86.0,78.8,79,30.01,8.0,Variable,3.5,-,0.01,Rain-Thunderstorm,Light Thunderstorms and Rain,0,2013-09-05 19:41:00
3:47 PM,80.6,73.4,79,30.02,1.0,ENE,16.1,25.3,0.15,Rain-Thunderstorm,Thunderstorms and Rain,70,2013-09-05 19:47:00
3:53 PM,75.9,70.0,82,30.02,1.0,Calm,Calm,-,0.34,Rain-Thunderstorm,Heavy Thunderstorms and Rain,0,2013-09-05 19:53:00
4:11 PM,78.8,73.4,83,30.02,5.0,SW,5.8,-,0.12,Rain-Thunderstorm,Thunderstorms and Rain,230,2013-09-05 20:11:00
4:12 PM,78.8,73.4,83,30.02,5.0,SW,4.6,-,0.12,Rain-Thunderstorm-Tornado,Funnel Cloud,220,2013-09-05 20:12:00
4:17 PM,78.8,75.2,89,30.01,5.0,South,8.1,-,0.13,Rain-Thunderstorm,Thunderstorms and Rain,190,2013-09-05 20:17:00
4:53 PM,79.0,73.9,84,30.00,10.0,Calm,Calm,-,0.14,,Overcast,0,2013-09-05 20:53:00
5:53 PM,82.0,75.0,79,30.00,10.0,Calm,Calm,-,N/A,,Clear,0,2013-09-05 21:53:00
6:53 PM,82.0,77.0,85,30.00,10.0,Calm,Calm,-,N/A,,Clear,0,2013-09-05 22:53:00
7:53 PM,82.0,77.0,85,30.00,10.0,NNE,3.5,-,N/A,,Clear,20,2013-09-05 23:53:00
8:39 PM,80.6,77.0,89,30.01,10.0,NNE,4.6,-,N/A,,Partly Cloudy,30,2013-09-06 00:39:00
8:53 PM,81.0,77.0,88,30.01,10.0,NE,3.5,-,N/A,,Clear,40,2013-09-06 00:53:00
9:53 PM,81.0,77.0,88,30.04,10.0,Calm,Calm,-,N/A,,Clear,0,2013-09-06 01:53:00
10:53 PM,81.0,75.9,85,30.04,10.0,Calm,Calm,-,N/A,,Clear,0,2013-09-06 02:53:00
11:53 PM,80.1,77.0,90,30.03,10.0,ENE,4.6,-,N/A,,Clear,70,2013-09-06 03:53:00